Kaltag, AK

3:35 PM AKDT on July 27, 2017 (GMT -0800)
Kaltag

Weather History for PAKV - April, 2013

Change the Weather History Date:

Thursday, April 25, 2013

  Actual Average (PAGA) Record (PAGA)
Temperature  
Mean Temperature 29 °F -  
Max Temperature 36 °F 36 °F 60 °F (2007)
Min Temperature 23 °F 20 °F -14 °F (1966)
Degree Days  
Heating Degree Days 36    
Moisture  
Dew Point 12 °F    
Average Humidity 48    
Maximum Humidity 78    
Minimum Humidity 28    
Precipitation  
Precipitation 0.00 in - - ()
Sea Level Pressure  
Sea Level Pressure 30.27 in    
Wind  
Wind Speed 5 mph (NNE)    
Max Wind Speed 13 mph    
Max Gust Speed -    
Visibility 10 miles    
Events      
Averages and records for this station are not official NWS values.
T = Trace of Precipitation, MM = Missing Value Source: NWS Daily Summary

Daily Weather History Graph

Daily Weather History Graph

Search for Another Location

Airport or City:

Trip Planner

Search our weather history database for the weather conditions in past years. The results will help you decide how hot, cold, wet, or windy it might be!

Date:

Astronomy

Apr. 25, 2013 Rise Set
Actual Time 6:25 AM AKDT 10:42 PM AKDT
Civil Twilight 5:21 AM AKDT 11:47 PM AKDT
Nautical Twilight 3:11 AM AKDT 2:18 AM AKDT
Astronomical Twilight Sun does not set Sun does not set
Moon 11:27 PM AKDT (4/25) 6:16 AM AKDT (4/25)
Length of Visible Light 18h 26m
Length of Day
16h 17m
Full, 100% of the Moon is Illuminated
Apr 25
Full
May 2
Last Quarter
May 9
New
May 17
First Quarter
May 24
Full

Hourly Weather History & Observations

Time (AKDT) Temp. Windchill Dew Point Humidity Pressure Visibility Wind Dir Wind Speed Gust Speed Precip Events Conditions
12:53 AM 30.9 °F - 18.0 °F 59% 30.33 in 10.0 mi Calm Calm - N/A   Clear
1:53 AM 28.9 °F 25.2 °F 17.1 °F 61% 30.34 in 10.0 mi NW 3.5 mph - N/A   Clear
2:53 AM 26.1 °F 21.9 °F 18.0 °F 71% 30.34 in 10.0 mi WNW 3.5 mph - N/A   Clear
3:53 AM 23.0 °F 15.8 °F 16.0 °F 74% 30.34 in 10.0 mi NNE 5.8 mph - N/A   Partly Cloudy
4:53 AM 23.0 °F 18.4 °F 17.1 °F 78% 30.32 in 10.0 mi WNW 3.5 mph - N/A   Clear
5:53 AM 26.1 °F 20.5 °F 16.0 °F 66% 30.32 in 10.0 mi NW 4.6 mph - N/A   Clear
6:53 AM 25.0 °F 18.1 °F 12.0 °F 58% 30.32 in 10.0 mi ENE 5.8 mph - N/A   Clear
7:53 AM 23.0 °F 15.8 °F 7.0 °F 50% 30.32 in 10.0 mi NE 5.8 mph - N/A   Clear
8:53 AM 25.0 °F 17.1 °F 6.1 °F 45% 30.31 in 10.0 mi NNE 6.9 mph - N/A   Clear
9:53 AM 28.0 °F 20.0 °F 6.1 °F 39% 30.30 in 10.0 mi NE 8.1 mph - N/A   Clear
10:53 AM 30.9 °F 23.5 °F 7.0 °F 37% 30.30 in 10.0 mi NE 8.1 mph - N/A   Clear
11:53 AM 33.1 °F 26.1 °F 3.9 °F 29% 30.30 in 10.0 mi ENE 8.1 mph - N/A   Clear
12:53 PM 34.0 °F 26.6 °F 3.9 °F 28% 30.29 in 10.0 mi NE 9.2 mph - N/A   Clear
1:53 PM 34.0 °F 26.0 °F 9.0 °F 35% 30.28 in 10.0 mi NE 10.4 mph - N/A   Clear
2:53 PM 34.0 °F 25.5 °F 12.0 °F 40% 30.27 in 10.0 mi NE 11.5 mph - N/A   Clear
3:53 PM 34.0 °F 26.0 °F 10.9 °F 38% 30.25 in 10.0 mi NE 10.4 mph - N/A   Clear
4:53 PM 35.1 °F 26.9 °F 12.0 °F 39% 30.23 in 10.0 mi NE 11.5 mph - N/A   Clear
5:53 PM 35.1 °F 26.4 °F 12.9 °F 40% 30.22 in 10.0 mi NE 12.7 mph - N/A   Clear
6:53 PM 35.1 °F 27.4 °F 10.0 °F 35% 30.20 in 10.0 mi NE 10.4 mph - N/A   Clear
7:53 PM 34.0 °F 28.0 °F 14.0 °F 44% 30.19 in 10.0 mi NE 6.9 mph - N/A   Clear
8:53 PM 32.0 °F 27.5 °F 14.0 °F 48% 30.17 in 10.0 mi NE 4.6 mph - N/A   Clear
9:53 PM 30.9 °F 26.2 °F 12.0 °F 46% 30.17 in 10.0 mi NE 4.6 mph - N/A   Clear
11:53 PM 27.0 °F - 12.0 °F 53% 30.14 in 10.0 mi Calm Calm - N/A   Clear